リニア彗星

C/2011 M1 ( LINEAR )

English version
Home page
Updated on October 20, 2011

---------------------------------------------------------------------

・ プロフィール

発見日 2011年6月22日
発見光度 18.6等
発見者 Lincoln Laboratory Near-Earth Asteroid Research project

・ 写真集

・ 軌道要素

Epoch 2011 Aug. 27.0 TT = JDT 2455800.5
T 2011 Sept. 7.57951 TT                                 MPC
q   0.8956239            (2000.0)            P               Q
z  -0.0027136      Peri.  119.58166     -0.23338824     -0.80706212
 +/-0.0005324      Node   324.79347     +0.15669867     +0.51928217
e   1.0024304      Incl.   70.18316     +0.95967466     -0.28106362
From 89 observations 2011 June 22-Aug. 2, mean residual 0".8.

・ 星図

・ 光度変化

        m1 = 12.0 + 5 logΔ + 10.0 log r(t + 35)

---------------------------------------------------------------------

軌道要素はM.P.E.C. 2011-P23に掲載されたものです。
星図はステラナビゲータ Ver.8 (アストロアーツ) で作成したものです。
光度グラフはComet for Windowsで作成したものです。

---------------------------------------------------------------------

Copyright(C) Seiichi Yoshida (comet@aerith.net). All rights reserved.